Date String (YYYY-MM-DD hh:mm:ss) UTC,Instrument flags,Ambient pressure (hPa),Sample flow (lpm),Bypass flow (lpm),Sample temperature (°C),Ambient temperature (°C),ASC tube jacket temperature (°C),LED temperature (°C),Box temperature (°C),Sample RH (%),Span deviation,Mass concentration (μg/m³),Mass concentration (μg/m³),Mass concentration (μg/m³)
DateTimeUTC,F1_M11,P_M11,Q1_M11,Q2_M11,T1_M11,T2_M11,T3_M11,T4_M11,T5_M11,U1_M11,ZSPAN_M11,X0_M11,X2_M11,X1_M11
2021-09-12 20:00:00,,0830.1,5.00,0.00,29.3,25.8,00.0,38.4,30.6,25.9,0001.6,0011.15,0005.55,0004.60
2021-09-12 20:01:00,,0830.1,4.99,0.00,29.2,26.2,00.0,38.4,30.7,26.2,0002.1,0011.04,0005.59,0004.63
2021-09-12 20:02:00,,0830.1,5.00,0.00,29.2,26.6,00.0,38.3,30.8,26.1,0002.2,0011.16,0005.64,0004.65
2021-09-12 20:03:00,,0830.1,5.00,0.00,29.2,27.0,00.0,38.3,30.9,26.1,0001.2,0011.33,0005.68,0004.65
2021-09-12 20:04:00,,0830.1,5.00,0.00,29.2,27.5,00.0,38.3,31.0,26.0,0001.0,0011.74,0005.69,0004.65
2021-09-12 20:05:00,,0830.1,5.00,0.00,29.3,27.8,00.0,38.3,31.1,26.3,0002.1,0011.84,0005.66,0004.65
2021-09-12 20:06:00,,0830.1,4.99,0.00,29.3,28.1,00.0,38.3,31.2,25.8,0001.6,0011.71,0005.67,0004.67
2021-09-12 20:07:00,,0830.1,5.00,0.00,29.4,28.4,00.0,38.3,31.3,25.6,0001.9,0011.35,0005.68,0004.67
2021-09-12 20:08:00,,0830.0,5.00,0.00,29.4,27.6,00.0,38.4,31.1,25.5,0002.2,0011.83,0005.73,0004.69
2021-09-12 20:09:00,,0830.0,5.00,0.00,29.3,26.0,00.0,38.3,30.7,25.9,0000.3,0012.44,0005.68,0004.69
2021-09-12 20:10:00,,0829.9,5.01,0.00,29.2,25.9,00.0,38.3,30.6,25.8,0000.0,0011.92,0005.65,0004.69
2021-09-12 20:11:00,,0829.9,5.00,0.00,29.1,26.3,00.0,38.3,30.7,25.7,0000.4,0011.65,0005.66,0004.69
2021-09-12 20:12:00,,0830.0,5.00,0.00,29.1,26.7,00.0,38.3,30.8,26.0,0001.1,0011.87,0005.65,0004.68
2021-09-12 20:13:00,,0830.0,4.99,0.00,29.1,27.2,00.0,38.2,30.9,25.5,0000.0,0011.81,0005.65,0004.68
2021-09-12 20:14:00,,0830.0,5.00,0.00,29.2,27.6,00.0,38.2,31.0,25.7,0001.9,0012.04,0005.64,0004.69
2021-09-12 20:15:00,,0830.0,4.99,0.00,29.2,27.9,00.0,38.2,31.1,25.9,0001.4,0011.57,0005.62,0004.70
2021-09-12 20:16:00,,0829.9,5.00,0.00,29.3,28.2,00.0,38.3,31.2,25.4,0000.0,0011.41,0005.65,0004.71
2021-09-12 20:17:00,,0829.9,5.01,0.00,29.3,28.4,00.0,38.3,31.3,25.2,0000.4,0012.08,0005.67,0004.70
2021-09-12 20:18:00,,0829.9,4.99,0.00,29.4,28.6,00.0,38.3,31.4,25.3,0000.0,0012.05,0005.68,0004.72
2021-09-12 20:19:00,,0829.9,5.01,0.00,29.5,28.0,00.0,38.3,31.2,25.1,0000.0,0011.72,0005.65,0004.74
2021-09-12 20:20:00,,0829.9,4.99,0.00,29.3,26.3,00.0,38.3,30.7,25.4,0000.3,0011.20,0005.65,0004.74
2021-09-12 20:21:00,,0829.8,5.01,0.00,29.2,25.8,00.0,38.3,30.6,25.9,0001.7,0011.45,0005.70,0004.75
2021-09-12 20:22:00,,0829.9,5.00,0.00,29.1,26.2,00.0,38.3,30.7,26.0,0001.6,0011.46,0005.70,0004.75
2021-09-12 20:23:00,,0829.8,5.00,0.00,29.1,26.7,00.0,38.3,30.8,26.0,0000.8,0011.42,0005.71,0004.75
2021-09-12 20:24:00,,0829.8,4.99,0.00,29.1,27.1,00.0,38.2,30.9,26.3,0002.4,0011.66,0005.78,0004.77
2021-09-12 20:25:00,,0829.8,5.02,0.00,29.2,27.6,00.0,38.2,31.0,25.4,0002.6,0011.21,0005.77,0004.76
2021-09-12 20:26:00,,0829.8,4.99,0.00,29.2,27.9,00.0,38.3,31.1,25.1,0002.8,0011.27,0005.78,0004.77
2021-09-12 20:27:00,,0829.9,4.99,0.00,29.3,28.2,00.0,38.3,31.2,24.8,0002.7,0011.31,0005.76,0004.76
2021-09-12 20:28:00,,0829.9,5.00,0.00,29.4,28.4,00.0,38.3,31.3,24.6,0002.1,0011.02,0005.75,0004.78
2021-09-12 20:29:00,,0829.8,5.01,0.00,29.4,28.1,00.0,38.3,31.2,24.6,0001.9,0011.34,0005.74,0004.78
2021-09-12 20:30:00,,0829.8,4.99,0.00,29.3,26.4,00.0,38.3,30.7,25.1,0001.8,0011.45,0005.74,0004.76
2021-09-12 20:31:00,,0829.8,5.00,0.00,29.1,25.7,00.0,38.3,30.5,24.8,0001.3,0011.06,0005.75,0004.77
2021-09-12 20:32:00,,0829.8,5.01,0.00,29.1,26.1,00.0,38.3,30.6,24.5,0001.1,0011.83,0005.76,0004.78
2021-09-12 20:33:00,,0829.8,4.99,0.00,29.1,26.6,00.0,38.2,30.7,24.5,0000.9,0012.29,0005.79,0004.78
2021-09-12 20:34:00,,0829.8,5.01,0.00,29.1,27.1,00.0,38.2,30.8,25.3,0000.4,0012.16,0005.79,0004.78
2021-09-12 20:35:00,,0829.8,4.99,0.00,29.1,27.5,00.0,38.2,30.9,25.1,0000.3,0012.00,0005.74,0004.77
2021-09-12 20:36:00,,0829.8,5.01,0.00,29.2,27.8,00.0,38.2,31.0,24.7,0000.3,0012.63,0005.76,0004.78
2021-09-12 20:37:00,,0829.8,5.00,0.00,29.3,28.1,00.0,38.2,31.2,24.9,0000.2,0012.73,0005.81,0004.78
2021-09-12 20:38:00,,0829.8,5.00,0.00,29.3,27.9,00.0,38.2,31.1,25.1,0000.3,0012.85,0005.82,0004.79
2021-09-12 20:39:00,,0829.8,5.01,0.00,29.2,26.4,00.0,38.2,30.7,24.8,0000.5,0012.54,0005.83,0004.77
2021-09-12 20:40:00,,0829.7,4.99,0.00,29.1,25.7,00.0,38.2,30.4,24.9,0000.5,0012.22,0005.83,0004.77
2021-09-12 20:41:00,,0829.7,5.00,0.00,29.0,26.0,00.0,38.2,30.5,25.4,0000.4,0012.40,0005.83,0004.77
2021-09-12 20:42:00,,0829.7,5.00,0.00,29.0,26.5,00.0,38.2,30.6,25.3,0000.7,0012.96,0005.89,0004.77
2021-09-12 20:43:00,,0829.7,5.00,0.00,29.0,26.9,00.0,38.1,30.8,25.3,0000.8,0012.84,0005.90,0004.77
2021-09-12 20:44:00,,0829.7,4.99,0.00,29.1,27.4,00.0,38.1,30.9,25.2,0000.4,0013.96,0005.92,0004.76
2021-09-12 20:45:00,,0829.7,5.00,0.00,29.1,27.8,00.0,38.1,31.0,24.9,0000.5,0014.19,0005.92,0004.74
2021-09-12 20:46:00,,0829.7,5.01,0.00,29.2,28.1,00.0,38.2,31.1,24.8,0000.8,0014.88,0005.91,0004.75
2021-09-12 20:47:00,,0829.7,4.99,0.00,29.2,27.9,00.0,38.2,31.1,24.5,0000.7,0014.43,0005.91,0004.74
2021-09-12 20:48:00,,0829.7,5.00,0.00,29.1,26.3,00.0,38.2,30.6,24.8,0000.5,0014.31,0005.85,0004.74
2021-09-12 20:49:00,,0829.7,5.00,0.00,29.0,25.5,00.0,38.1,30.3,25.1,0000.1,0014.27,0005.82,0004.74
2021-09-12 20:50:00,,0829.7,5.00,0.00,28.9,25.9,00.0,38.1,30.4,25.2,-000.3,0014.71,0005.80,0004.73
2021-09-12 20:51:00,,0829.7,4.99,0.00,28.9,26.3,00.0,38.1,30.6,25.3,-000.1,0015.08,0005.81,0004.74
2021-09-12 20:52:00,,0829.8,5.00,0.00,29.0,26.8,00.0,38.1,30.7,25.2,0000.2,0015.80,0005.80,0004.75
2021-09-12 20:53:00,,0829.7,5.00,0.00,29.0,27.3,00.0,38.0,30.8,25.0,-000.0,0015.86,0005.77,0004.75
2021-09-12 20:54:00,,0829.8,5.01,0.00,29.1,27.6,00.0,38.0,30.9,25.1,0000.1,0015.02,0005.73,0004.75
2021-09-12 20:55:00,,0829.8,5.00,0.00,29.1,27.9,00.0,38.1,31.0,24.8,0000.8,0013.42,0005.68,0004.77
2021-09-12 20:56:00,,0829.8,5.00,0.00,29.2,28.2,00.0,38.1,31.1,24.8,0001.3,0013.05,0005.62,0004.78
2021-09-12 20:57:00,,0829.8,5.00,0.00,29.2,28.4,00.0,38.1,31.2,24.6,0001.1,0012.44,0005.68,0004.78
2021-09-12 20:58:00,,0829.8,5.01,0.00,29.3,27.7,00.0,38.1,31.0,24.8,0001.0,0012.65,0005.72,0004.79
2021-09-12 20:59:00,,0829.8,4.99,0.00,29.1,26.0,00.0,38.1,30.5,25.0,0001.1,0012.82,0005.75,0004.80
